Weather reports worldwide

Advertisment
Gioia Del Colle, Italy (16312): temperature & dewpoint: 30.03.2020 21:00:00 - 05.04.2020 21:00:00 (CEST)Gioia Del Colle, Italy (16312): wind speed: 30.03.2020 21:00:00 - 05.04.2020 21:00:00 (CEST)Gioia Del Colle, Italy (16312): wind direction: 30.03.2020 21:00:00 - 05.04.2020 21:00:00 (CEST)Gioia Del Colle, Italy (16312): reduced air pressure: 30.03.2020 21:00:00 - 05.04.2020 21:00:00 (CEST)Gioia Del Colle, Italy (16312): visibility: 30.03.2020 21:00:00 - 05.04.2020 21:00:00 (CEST)
Date & Time tt [°C] td [°C] ff [km/h] ff [kn] dd ppp [hPa] vv [km]
05.04.2020 21:00:00 10,0 6,0 11 6 N - 10
05.04.2020 20:00:00 11,0 4,7 18 10 N 1017,5 10
05.04.2020 19:00:00 12,0 5,0 18 10 NNE - 10
05.04.2020 18:00:00 12,0 3,0 24 13 NNE - 10
05.04.2020 17:00:00 13,0 1,7 24 13 N 1015,2 10
05.04.2020 16:00:00 14,0 2,0 28 15 NNE - 10
05.04.2020 15:00:00 14,0 4,0 24 13 N - 10
05.04.2020 14:00:00 13,0 5,4 16 9 N 1014,8 10
05.04.2020 13:00:00 13,0 5,0 16 9 NNE - 10
05.04.2020 12:00:00 14,0 6,0 21 11 N - 10
05.04.2020 11:00:00 13,0 6,6 16 9 N 1013,3 10
05.04.2020 10:00:00 13,0 8,0 15 8 N - 8
05.04.2020 09:00:00 11,0 8,0 15 8 NNW - 8
05.04.2020 08:00:00 10,0 6,9 18 10 NW 1013,0 8
05.04.2020 07:00:00 9,0 7,0 18 10 NW - 8
05.04.2020 06:00:00 9,0 6,0 18 10 NW - 8
05.04.2020 05:00:00 8,8 6,1 21 11 NW 1012,2 8
05.04.2020 04:00:00 9,0 7,0 18 10 NW - 8
05.04.2020 03:00:00 9,0 7,0 18 10 NW - 8
05.04.2020 02:00:00 8,0 7,1 15 8 NW 1013,4 8
05.04.2020 01:00:00 8,0 7,0 13 7 NW - 10
05.04.2020 00:00:00 9,0 5,0 16 9 NW - 10
04.04.2020 23:00:00 10,0 4,2 22 12 NW 1013,0 10
04.04.2020 22:00:00 11,0 3,0 28 15 NW - 10
04.04.2020 21:00:00 11,0 -2,0 28 15 NW - 10
04.04.2020 20:00:00 11,0 -2,8 31 17 NNW 1011,9 10
04.04.2020 19:00:00 12,0 -4,0 24 13 NNW - 10
04.04.2020 18:00:00 12,0 -5,0 28 15 NNW - 10
04.04.2020 17:00:00 13,0 -3,3 35 19 N 1010,9 10
04.04.2020 16:00:00 13,0 -1,0 31 17 NNW - 10
04.04.2020 15:00:00 13,0 0,0 28 15 NNW - 10
04.04.2020 14:00:00 14,0 2,6 29 16 N 1011,2 10
04.04.2020 13:00:00 14,0 3,0 28 15 NNW - 10
04.04.2020 12:00:00 13,0 4,0 29 16 NNW - 10
04.04.2020 11:00:00 12,6 5,3 24 13 NNW 1011,7 10
04.04.2020 10:00:00 11,0 6,0 28 15 NNW - 10
04.04.2020 09:00:00 9,0 5,0 28 15 NNW - 10
04.04.2020 08:00:00 7,8 3,7 24 13 NW 1011,9 10
04.04.2020 07:00:00 7,0 3,0 21 11 NNW - 10
04.04.2020 06:00:00 7,0 2,0 22 12 NNW - 10
04.04.2020 05:00:00 6,6 4,4 24 13 NNW 1012,2 10
04.04.2020 04:00:00 7,0 5,0 21 11 NNW - 10
04.04.2020 03:00:00 6,0 4,0 18 10 NNW - 10
04.04.2020 02:00:00 6,4 4,7 15 8 N 1012,6 10
04.04.2020 01:00:00 6,0 5,0 11 6 NNW - 10
04.04.2020 00:00:00 6,0 6,0 9 5 NNW - 10
03.04.2020 23:00:00 6,4 3,9 11 6 N 1012,6 10
03.04.2020 22:00:00 7,0 4,0 13 7 N - 10
03.04.2020 21:00:00 7,0 3,0 13 7 N - 10
03.04.2020 20:00:00 8,4 2,6 9 5 NNE 1011,9 10
03.04.2020 19:00:00 9,0 2,0 15 8 NNE - 10
03.04.2020 18:00:00 10,0 1,0 15 8 ENE - 10
03.04.2020 17:00:00 10,0 1,6 16 9 NE 1011,3 10
03.04.2020 16:00:00 10,0 3,0 15 8 NE - 10
03.04.2020 15:00:00 10,0 4,0 11 6 S - 10
03.04.2020 14:00:00 11,2 0,3 15 8 NE 1011,7 10
03.04.2020 13:00:00 12,0 0,0 5 3 - - 10
03.04.2020 12:00:00 11,0 0,0 4 2 - - 10
03.04.2020 11:00:00 10,6 2,7 8 4 SE 1012,2 10
03.04.2020 10:00:00 9,0 4,0 8 4 SE - 10
03.04.2020 09:00:00 6,0 5,0 2 1 - - 10
03.04.2020 08:00:00 2,8 2,4 4 2 N 1012,9 10
03.04.2020 07:00:00 2,0 1,0 4 2 N - 10
03.04.2020 06:00:00 2,0 2,0 0 0 N - 10
03.04.2020 05:00:00 2,2 1,5 0 0 N 1012,9 10
03.04.2020 04:00:00 2,0 2,0 0 0 N - 10
03.04.2020 03:00:00 2,0 1,0 0 0 N - 10
03.04.2020 02:00:00 2,0 1,1 0 0 N 1013,8 10
03.04.2020 01:00:00 2,0 2,0 2 1 - - 10
03.04.2020 00:00:00 2,0 2,0 2 1 - - 10
02.04.2020 23:00:00 4,0 2,0 0 0 N 1013,7 10
02.04.2020 22:00:00 4,0 2,0 2 1 - - 10
02.04.2020 21:00:00 5,0 2,0 4 2 - - 10
02.04.2020 20:00:00 5,8 2,1 9 5 NE 1011,9 10
02.04.2020 19:00:00 7,0 1,0 15 8 NE - 10
02.04.2020 18:00:00 9,0 0,0 11 6 NE - 10
02.04.2020 17:00:00 9,6 -1,2 9 5 NE 1012,3 10
02.04.2020 16:00:00 9,0 -2,0 4 2 WNW - 10
02.04.2020 15:00:00 9,0 -1,0 8 4 N - 10
02.04.2020 14:00:00 9,2 -1,5 9 5 N 1013,7 10
02.04.2020 13:00:00 8,0 -2,0 13 7 N - 10
02.04.2020 12:00:00 9,0 -2,0 15 8 NNE - 10
02.04.2020 11:00:00 7,8 -1,4 11 6 NNW 1014,4 10
02.04.2020 10:00:00 9,0 1,0 15 8 NW - 10
02.04.2020 09:00:00 6,0 0,0 15 8 NW - 10
02.04.2020 08:00:00 3,6 -0,4 11 6 WNW 1014,2 10
02.04.2020 07:00:00 2,0 -1,0 13 7 WNW - 10
02.04.2020 06:00:00 2,0 -2,0 13 7 WNW - 10
02.04.2020 05:00:00 2,8 -1,4 13 7 W 1014,2 10
02.04.2020 04:00:00 4,0 -3,0 16 9 NW - 10
02.04.2020 03:00:00 5,0 -3,0 21 11 NW - 10
02.04.2020 02:00:00 4,6 -3,0 18 10 WNW 1014,2 10
02.04.2020 01:00:00 5,0 -4,0 21 11 WNW - 10
02.04.2020 00:00:00 5,0 -4,0 22 12 WNW - 10
01.04.2020 23:00:00 5,0 -3,8 21 11 NW 1014,1 10
01.04.2020 22:00:00 5,0 -3,0 22 12 NW - 10
01.04.2020 21:00:00 4,0 -3,0 15 8 NW - 10
01.04.2020 20:00:00 5,0 -4,6 15 8 NW 1013,5 10
01.04.2020 19:00:00 7,0 -6,0 24 13 NNW - 10
01.04.2020 18:00:00 8,0 -5,0 28 15 NNW - 10
01.04.2020 17:00:00 8,0 -5,1 29 16 NW 1012,0 10
01.04.2020 16:00:00 8,0 -2,0 34 18 NW - 10
01.04.2020 15:00:00 8,0 -4,0 31 17 NW - 10
01.04.2020 14:00:00 7,6 -1,4 35 19 NW 1012,0 9
01.04.2020 13:00:00 6,0 1,0 35 19 NNW - 8
01.04.2020 12:00:00 6,0 1,0 39 21 NNW - 6
01.04.2020 11:00:00 5,0 2,2 35 19 NW 1012,4 7
01.04.2020 10:00:00 4,0 1,0 26 14 NW - 8
01.04.2020 09:00:00 4,0 1,0 29 16 WNW - 8
01.04.2020 08:00:00 2,6 0,7 21 11 WNW 1013,1 7
01.04.2020 07:00:00 2,0 2,0 15 8 NW - 6
01.04.2020 06:00:00 2,0 2,0 22 12 NNW - 3,5
01.04.2020 05:00:00 2,0 1,7 18 10 NW 1014,5 2,0
01.04.2020 04:00:00 3,0 3,0 16 9 NNW - 3,5
01.04.2020 03:00:00 5,0 4,0 22 12 NNW - 3,5
01.04.2020 02:00:00 5,4 4,8 22 12 NW 1014,7 3,5
01.04.2020 01:00:00 6,0 5,0 22 12 NNW - 4,5
01.04.2020 00:00:00 6,0 5,0 21 11 NNW - 3,5
31.03.2020 23:00:00 6,4 5,5 18 10 NNW 1016,0 4,5
31.03.2020 22:00:00 7,0 5,0 18 10 NNW - 6
31.03.2020 21:00:00 8,0 4,0 21 11 NNW - 7
31.03.2020 20:00:00 8,2 4,6 21 11 NNW 1015,2 7
31.03.2020 19:00:00 9,0 5,0 18 10 N - 7
31.03.2020 18:00:00 9,0 5,0 21 11 N - 7
31.03.2020 17:00:00 10,0 4,8 24 13 N 1014,5 7
31.03.2020 16:00:00 11,0 6,0 29 16 N - 7
31.03.2020 15:00:00 11,0 7,0 31 17 NNW - 7
31.03.2020 14:00:00 12,0 6,9 34 18 NNW 1013,9 8
31.03.2020 13:00:00 13,0 6,0 24 13 NNW - 9
31.03.2020 12:00:00 13,0 6,0 22 12 NW - 9
31.03.2020 11:00:00 13,0 5,4 18 10 NNW 1013,5 9
31.03.2020 10:00:00 12,0 6,0 16 9 NNW - 9
31.03.2020 09:00:00 11,0 8,0 9 5 NW - 8
31.03.2020 08:00:00 8,0 5,1 5 3 NW 1013,2 6
31.03.2020 07:00:00 8,0 5,0 4 2 NW - 5
31.03.2020 06:00:00 8,0 6,0 5 3 NNW - 3,5
31.03.2020 05:00:00 7,8 6,1 8 4 NNW 1012,2 3,5
31.03.2020 04:00:00 8,0 6,0 5 3 N - 3,5
31.03.2020 03:00:00 9,0 7,0 9 5 NNW - 3,0
31.03.2020 02:00:00 9,8 9,8 9 5 NNW 1012,1 2,5
31.03.2020 01:00:00 11,0 11,0 9 5 NNW - 1,2
31.03.2020 00:00:00 11,0 11,0 9 5 N - 1,2
30.03.2020 23:00:00 10,4 10,4 9 5 N 1011,8 2,0
30.03.2020 22:00:00 11,0 11,0 8 4 NNW - 3,5
30.03.2020 21:00:00 11,0 10,0 5 3 NNW - 4,5

tt = temperature
td = dewpoint
ff = wind speed
dd = wind direction
ppp = reduced air pressure
vv = visibility

Next stations